Location: Kaltenbach
(49.2000°N, 7.7500°E)
Time: 12:33:52
(UTC+00:00)

ISS - Pass Details

Date: 24 January 2020
Orbit: 416 x 423 km, 51.6° (Epoch: 17 February)

Event Time Altitude Azimuth Distance (km) Brightness Sun altitude
Rises 17:19:47 0° 225° (SW) 2,369 1.2 -11.1°
Reaches altitude 10° 17:21:58 10° 216° (SW) 1,507 -0.1 -11.4°
Maximum altitude 17:25:07 37° 148° (SSE) 674 -2.9 -11.9°
Enters shadow 17:27:00 20° 91° (E) 1,049 -2.3 -12.2°
